{"data":{"norad_id":51741,"epoch":"2026-09-19T22:51:57.568032Z","epoch_age_seconds":98873,"freshness":"FRESH","line1":"1 51741U 22016AD  26262.95274963  .00000344  00000+0  22841-4 0  9993","line2":"2 51741  53.1593 153.3792 0001263  91.2980 268.8166 15.31692106253075","mean_motion":15.31692106,"eccentricity":0.0001263,"inclination_deg":53.1593,"raan_deg":153.3792,"arg_perigee_deg":91.298,"mean_anomaly_deg":268.8166,"bstar":2.2841e-5,"rev_number":25307,"period_min":94.013672484123,"perigee_km":469.89851079339,"apogee_km":471.62854306649,"semimajor_km":6848.9005269299,"source":"CELESTRAK","updated_at":"2026-09-20T09:00:39.931384Z"}}